Regional Weather Roundup
Issued by NWS Northern Indiana

Home | Current Version | Previous Version | Graphics & Text | Print | Product List | Glossary On
Versions: 1 2 3 4 5 6 7 8 9 10 11 12 13 14 15 16 17 18 19 20 21 22 23 24 25 26 27 28 29 30 31 32 33 34 35 36 37 38 39 40 41 42 43 44 45 46 47 48 49 50
000
ASUS43 KIWX 281600
RWRIWX

KIWX WEATHER ROUNDUP
NATIONAL WEATHER SERVICE NORTHERN INDIANA
1100 AM EST SUN DEC 28 2014

NOTE: "FAIR" INDICATES FEW OR NO CLOUDS BELOW 12,000 FEET WITH NO
SIGNIFICANT WEATHER AND/OR OBSTRUCTIONS TO VISIBILITY.

* THESE STATIONS ARE NOT UNDER NWS QUALITY CONTROL. THEY ALSO MAY NOT
  REPORT WEATHER SUCH AS PRECIPITATION OR FOG.

INZ001>027-281700-
NORTHERN INDIANA

CITY           SKY/WX    TMP DP  RH WIND       PRES   REMARKS
SOUTH BEND     CLOUDY    32  24  72 W8        30.18R WCI  25
ELKHART*       CLOUDY    32  23  69 W8        30.18R WCI  25
GOSHEN         CLOUDY    33  26  75 W10       30.17R WCI  25
ANGOLA*        MOSUNNY   34  25  69 NW8       30.13S WCI  27
FORT WAYNE     CLOUDY    33  28  81 W10       30.16R WCI  25
PERU/GRISSOM   CLOUDY    30  30 100 W10       30.18S WCI  21

$$
INZ028>050-281700-
CENTRAL INDIANA

CITY           SKY/WX    TMP DP  RH WIND       PRES   REMARKS
LAFAYETTE      CLOUDY    28  22  78 NW7       30.21S WCI  21
KOKOMO*        CLOUDY    30  27  86 W12       30.18S WCI  21
MUNCIE*        CLOUDY    32  28  85 NW10      30.16R WCI  24
INDIANAPOLIS   CLOUDY    29  26  89 N10       30.19S WCI  20

$$
MIZ043>046-050>051-056>058-064>065-071>073-077>080-281700-
SOUTHWEST LOWER MICHIGAN

CITY           SKY/WX    TMP DP  RH WIND       PRES   REMARKS
BATTLE CREEK   CLOUDY    33  23  66 W10       30.14R WCI  25
BENTON HARBOR  CLOUDY    31  24  75 W12       30.17R WCI  22
COLDWATER*     CLOUDY    33  24  71 NW9       30.14R WCI  25
HILLSDALE*     CLOUDY    33  26  75 W12       30.12R WCI  25
HOLLAND        PTSUNNY   34  24  67 W10       30.16R WCI  26
GRAND RAPIDS   PTSUNNY   31  22  69 W7        30.13R WCI  24
KALAMAZOO      CLOUDY    33  23  66 W8        30.15R WCI  26
STURGIS*       CLOUDY    32  25  74 W8        30.15R WCI  25
THREE RIVERS*  FAIR      33  25  72 NW7       30.16R WCI  27

$$
OHZ001>008-015>018-024>025-281700-
NORTHWEST OHIO

CITY           SKY/WX    TMP DP  RH WIND       PRES   REMARKS
DEFIANCE       CLOUDY    36  28  73 W12       30.15R
FINDLAY        CLOUDY    37  30  75 W8        30.13R
TOLEDO EXPRESS CLOUDY    35  30  82 W10       30.13R WCI  27
TOLEDO METCALF CLOUDY    37  30  75 W10       30.14R
LIMA           CLOUDY    36  31  82 W13       30.13R

$$
AND FOR LAKE MICHIGAN COASTAL AND OPEN LAKE BUOY OBSERVATIONS

STATION/POSITION TEMP    WIND        PRES    VSBY  WAVE
                 AIR SEA DIR/SP/G                  HT/PER
                 (F)     (DEG/KT/KT) (MB)    (MI)  (FT/S)
CALUMET HARBOR    26     230/  7/ 11 1021.5R
MICHIGAN CITY     29     250/ 11/ 13   N/A
SAINT JOSEPH      33     240/  8/ 14 1022.4R
SAINT JOSEPH CG                      1021.6      6   0

$$
&&


USA.gov is the U.S. government's official web portal to all federal, state and local government web resources and services.